RAVAN

Last updated on Tue Jul 01 2025 00:03:44 GMT+0000 (Coordinated Universal Time)

1 41849U 16067B 25181.56690699 .00009912 00000+0 33566-3 0 9999 2 41849 98.0426 32.3107 0009689 155.3542 204.8162 15.30774800473552
UTC large
Height (km)
Speed (km/s)
/
Latitude / Longitude
Inclination (degrees)
Orbital Period (minutes)
Azimuth
Elevation
Range (km)
Doppler Factor

Next 0 passes for location: London (51.5072 / 0.1276)

Sorry there are no passes over London.